This demonstration page uses our WeatherBlox Daily Observations layout. Learn more.

40.92945, -100.16068

Hourly Observations for January 13, 2019

Temp ( °F °C ) Dew Point ( °F °C ) Humidity (%) Winds ( mph kmh ) Pressure ( in mb ) Visibility ( mi km ) Precip ( " mm )
12:15 am 00:15 Cloudy 25 -4 22 -5.7 88 88 N 3 6 30.5 1033 10 16.09344 0 0
12:35 am 00:35 Cloudy 25 -4 22 -5.8 87 87 NE 3 6 30.5 1033 10 16.09344 0 0
12:55 am 00:55 Cloudy 25 -4 22 -5.8 87 87 Calm 30.5 1033 7 11.265408 0 0
1:15 am 01:15 Cloudy 25 -4 22 -5.8 87 87 Calm 30.5 1033 10 16.09344 0 0
1:35 am 01:35 Cloudy 25 -4 21 -5.9 87 87 Calm 30.5 1033 10 16.09344 0 0
1:55 am 01:55 Cloudy 25 -4 21 -6 86 86 Calm 30.5 1033 10 16.09344 0 0
2:15 am 02:15 Cloudy 25 -4 22 -5.8 87 87 Calm 30.5 1033 10 16.09344 0 0
2:35 am 02:35 Cloudy 25 -3.8 22 -5.7 87 87 Calm 30.5 1033 10 16.09344 0 0
2:55 am 02:55 Cloudy 25 -3.8 22 -5.7 87 87 Calm 30.5 1033 10 16.09344 0 0
3:15 am 03:15 Cloudy 25 -3.8 22 -5.7 87 87 Calm 30.5 1033 10 16.09344 0 0
3:35 am 03:35 Cloudy 25 -3.7 22 -5.7 86 86 Calm 30.5 1033 10 16.09344 0 0
3:55 am 03:55 Cloudy 26 -3.6 22 -5.7 86 86 Calm 30.5 1033 10 16.09344 0 0
4:15 am 04:15 Cloudy 25 -3.7 22 -5.8 86 86 Calm 30.5 1033 10 16.09344 0 0
4:35 am 04:35 Cloudy 26 -3.6 22 -5.6 86 86 Calm 30.5 1033 10 16.09344 0 0
4:55 am 04:55 Cloudy 26 -3.6 22 -5.7 86 86 Calm 30.5 1033 10 16.09344 0 0
5:15 am 05:15 Cloudy 26 -3.5 22 -5.7 85 85 Calm 30.5 1033 10 16.09344 0 0
5:35 am 05:35 Cloudy 26 -3.5 22 -5.5 86 86 Calm 30.5 1033 10 16.09344 0 0
5:55 am 05:55 Cloudy 26 -3.5 22 -5.5 86 86 SSE 3 6 30.5 1033 10 16.09344 0 0
6:15 am 06:15 Cloudy 26 -3.5 22 -5.4 87 87 Calm 30.5 1033 10 16.09344 0 0
6:35 am 06:35 Cloudy 26 -3.3 23 -5.2 87 87 SSE 3 6 30.5 1033 7 11.265408 0 0
6:55 am 06:55 Cloudy 26 -3.2 23 -5.2 86 86 Calm 30.5 1033 10 16.09344 0 0
7:15 am 07:15 Cloudy 26 -3.2 23 -5.1 87 87 S 3 6 30.5 1033 10 16.09344 0 0
7:35 am 07:35 Cloudy 26 -3.1 23 -5.1 86 86 S 3 6 30.5 1033 10 16.09344 0 0
7:55 am 07:55 Cloudy 26 -3.1 23 -5 87 87 S 6 9 30.5 1033 10 16.09344 0 0
8:15 am 08:15 Cloudy 27 -3 23 -5 86 86 S 5 7 30.5 1033 7 11.265408 0 0
8:35 am 08:35 Cloudy 27 -2.7 24 -4.7 86 86 S 5 7 30.5 1033 7 11.265408 0 0
8:55 am 08:55 Cloudy 28 -2.5 24 -4.7 85 85 S 5 7 30.53 1034 10 16.09344 0 0
9:15 am 09:15 Cloudy 28 -2.5 24 -4.6 86 86 SSW 5 7 30.53 1034 10 16.09344 0 0
9:35 am 09:35 Cloudy 28 -2.2 24 -4.5 84 84 SW 6 9 30.53 1034 10 16.09344 0 0
9:55 am 09:55 Cloudy 28 -2 24 -4.3 84 84 SSW 7 11 30.53 1034 10 16.09344 0 0
10:15 am 10:15 Cloudy 29 -1.7 25 -4 85 85 SSW 6 9 30.5 1033 10 16.09344 0 0
10:35 am 10:35 Cloudy 29 -1.5 25 -3.9 84 84 SW 5 7 30.5 1033 10 16.09344 0 0
10:55 am 10:55 Cloudy 30 -1.2 25 -3.7 83 83 SSW 7 11 30.5 1033 10 16.09344 0 0
11:15 am 11:15 Cloudy 30 -1.3 25 -4 82 82 SW 7 11 30.5 1033 10 16.09344 0 0
11:35 am 11:35 Cloudy 30 -1.2 25 -3.7 83 83 SW 9 15 30.5 1033 10 16.09344 0 0
11:55 am 11:55 Cloudy 29 -1.5 25 -3.8 85 85 SW 10 17 30.5 1033 10 16.09344 0 0
12:15 pm 12:15 Cloudy 30 -1.2 26 -3.5 85 85 SSW 12 19 30.48 1032 10 16.09344 0 0
12:35 pm 12:35 Cloudy 30 -1.2 26 -3.5 85 85 SW 10 17 30.48 1032 10 16.09344 0 0
12:55 pm 12:55 Cloudy 30 -1.1 26 -3.5 84 84 SW 9 15 30.48 1032 10 16.09344 0 0
1:15 pm 13:15 Cloudy 30 -1.1 26 -3.5 84 84 SW 8 13 30.48 1032 10 16.09344 0 0
1:35 pm 13:35 Cloudy 30 -1 26 -3.3 85 85 WSW 7 11 30.45 1031 10 16.09344 0 0
1:55 pm 13:55 Cloudy 30 -1 26 -3.1 86 86 SSW 9 15 30.45 1031 10 16.09344 0 0
2:15 pm 14:15 Cloudy 30 -1 27 -3 86 86 SW 8 13 30.45 1031 10 16.09344 0 0
2:35 pm 14:35 Cloudy 31 -0.7 27 -3 85 85 SW 8 13 30.45 1031 10 16.09344 0 0
2:55 pm 14:55 Cloudy 31 -0.7 27 -3 85 85 WSW 7 11 30.45 1031 10 16.09344 0 0
3:15 pm 15:15 Cloudy 31 -0.6 27 -2.7 86 86 SW 8 13 30.45 1031 10 16.09344 0 0
3:35 pm 15:35 Cloudy 31 -0.4 28 -2.5 86 86 SW 8 13 30.45 1031 10 16.09344 0 0
3:55 pm 15:55 Cloudy 31 -0.5 27 -2.7 85 85 WSW 7 11 30.45 1031 10 16.09344 0 0
4:15 pm 16:15 Cloudy 31 -0.5 27 -2.7 85 85 SSW 12 19 30.45 1031 10 16.09344 0 0
4:35 pm 16:35 Cloudy 31 -0.5 27 -2.8 85 85 SSW 8 13 30.45 1031 10 16.09344 0 0
4:55 pm 16:55 Cloudy 31 -0.5 27 -2.7 85 85 SW 7 11 30.45 1031 10 16.09344 0 0
5:15 pm 17:15 Cloudy 30 -0.9 26 -3.1 85 85 SW 10 17 30.45 1031 10 16.09344 0 0
5:35 pm 17:35 Cloudy 30 -1.1 26 -3.1 86 86 SSW 8 13 30.45 1031 10 16.09344 0 0
5:55 pm 17:55 Cloudy 30 -1 27 -3 86 86 SW 9 15 30.45 1031 10 16.09344 0 0
6:15 pm 18:15 Cloudy 30 -1 27 -2.7 88 88 SW 9 15 30.45 1031 10 16.09344 0 0
6:35 pm 18:35 Cloudy 30 -1 27 -2.7 88 88 SSW 9 15 30.45 1031 10 16.09344 0 0
6:55 pm 18:55 Cloudy 30 -1 27 -2.6 89 89 SW 8 13 30.45 1031 10 16.09344 0 0
7:15 pm 19:15 Cloudy 30 -1 28 -2.5 90 90 SW 7 11 30.45 1031 10 16.09344 0 0
7:35 pm 19:35 Cloudy 30 -1 28 -2.5 90 90 SW 7 11 30.45 1031 10 16.09344 0 0
7:55 pm 19:55 Cloudy 31 -0.8 28 -2.2 90 90 SW 7 11 30.45 1031 10 16.09344 0 0
8:15 pm 20:15 Cloudy 31 -0.8 28 -2.2 90 90 SW 10 17 30.45 1031 10 16.09344 0 0
8:35 pm 20:35 Cloudy 31 -0.8 28 -2.1 91 91 WSW 7 11 30.45 1031 10 16.09344 0 0
8:55 pm 20:55 Cloudy 30 -1 28 -2.1 92 92 SW 9 15 30.45 1031 10 16.09344 0 0
9:15 pm 21:15 Cloudy 30 -1 28 -2.2 92 92 SW 12 19 30.45 1031 10 16.09344 0 0
9:35 pm 21:35 Cloudy 30 -1 28 -2.1 92 92 SW 12 19 30.45 1031 7 11.265408 0 0
9:55 pm 21:55 Cloudy 30 -1.3 28 -2.3 93 93 SW 9 15 30.45 1031 7 11.265408 0 0
10:15 pm 22:15 Cloudy with Mist and Fog 30 -1.3 28 -2.2 94 94 SW 10 17 30.45 1031 5 8.04672 0 0
10:35 pm 22:35 Cloudy with Mist and Fog 30 -1.3 28 -2.1 94 94 SSW 9 15 30.45 1031 5 8.04672 0 0
10:55 pm 22:55 Cloudy with Mist and Fog 30 -1.3 28 -2.1 94 94 SW 10 17 30.42 1030 5 8.04672 0 0
11:15 pm 23:15 Cloudy with Mist and Fog 30 -1.3 28 -2.1 94 94 SW 9 15 30.45 1031 4 6.437376 0 0
11:35 pm 23:35 Cloudy with Mist and Fog 29 -1.5 28 -2.1 96 96 WSW 10 17 30.45 1031 2 3.218688 0 0
11:55 pm 23:55 Cloudy with Mist and Fog 30 -1.3 28 -2 95 95 WSW 8 13 30.42 1030 1 1.609344 0 0

Powered by AerisWeather